NVA1003 SKLC-MPLP

Flight info

Callsign NVA1003
Flight time N/A
Altitude 10500
Route LCE DCT PML
Aircraft PA31/L-SDFGRY/S

Departure

Time 2026-04-22 20:16
Airport Antonio Roldán Betancur Airport (SKLC)

Arrival

Time N/A
Airport MPLP
Time Latitude Longitude Altitude Speed Heading
2026-04-22 20:16 7.90583 -76.93047 4617 ft 133 kts 329°
2026-04-22 20:16 7.91353 -76.93599 4763 ft 134 kts 329°
2026-04-22 20:17 7.92146 -76.94162 4928 ft 141 kts 328°
2026-04-22 20:17 7.92992 -76.94754 5129 ft 149 kts 329°
2026-04-22 20:17 7.93869 -76.95370 5349 ft 154 kts 329°
2026-04-22 20:17 7.94759 -76.95995 5574 ft 157 kts 329°
2026-04-22 20:18 7.95669 -76.96639 5802 ft 159 kts 329°
2026-04-22 20:18 7.96598 -76.97293 6042 ft 160 kts 329°
2026-04-22 20:18 7.97522 -76.97942 6283 ft 160 kts 329°
2026-04-22 20:18 7.98451 -76.98593 6520 ft 160 kts 329°
2026-04-22 20:19 7.99380 -76.99247 6752 ft 160 kts 329°
2026-04-22 20:19 8.00299 -76.99893 6978 ft 161 kts 329°
2026-04-22 20:19 8.01246 -77.00558 7205 ft 162 kts 329°
2026-04-22 20:19 8.02183 -77.01212 7433 ft 163 kts 329°
2026-04-22 20:20 8.03070 -77.01956 7653 ft 167 kts 306°
2026-04-22 20:20 8.03299 -77.03100 7868 ft 171 kts 265°
2026-04-22 20:20 8.03177 -77.04324 8097 ft 171 kts 264°
2026-04-22 20:20 8.03039 -77.05534 8323 ft 171 kts 263°
2026-04-22 20:21 8.02890 -77.06746 8549 ft 171 kts 263°
2026-04-22 20:21 8.02746 -77.07960 8774 ft 171 kts 263°
2026-04-22 20:21 8.02596 -77.09152 8993 ft 171 kts 262°
2026-04-22 20:21 8.02446 -77.10376 9217 ft 170 kts 261°
2026-04-22 20:22 8.02295 -77.11579 9436 ft 170 kts 262°
2026-04-22 20:22 8.02143 -77.12769 9651 ft 170 kts 261°
2026-04-22 20:22 8.01989 -77.13965 9864 ft 169 kts 262°
2026-04-22 20:22 8.01835 -77.15176 10079 ft 169 kts 261°
2026-04-22 20:23 8.01686 -77.16366 10288 ft 169 kts 261°
2026-04-22 20:23 8.01589 -77.17557 10495 ft 169 kts 271°
2026-04-22 20:23 8.01754 -77.18755 10701 ft 169 kts 280°
2026-04-22 20:23 8.02035 -77.19920 10904 ft 169 kts 285°
2026-04-22 20:24 8.02392 -77.21072 11107 ft 168 kts 288°
2026-04-22 20:24 8.02791 -77.22205 11307 ft 168 kts 289°
2026-04-22 20:24 8.03206 -77.23305 11502 ft 168 kts 290°
2026-04-22 20:24 8.03642 -77.24417 11697 ft 168 kts 291°
2026-04-22 20:25 8.04092 -77.25540 11797 ft 174 kts 291°
2026-04-22 20:25 8.04573 -77.26720 11785 ft 184 kts 291°
2026-04-22 20:25 8.05083 -77.27964 11672 ft 196 kts 292°
2026-04-22 20:25 8.05631 -77.29293 11536 ft 205 kts 292°
2026-04-22 20:26 8.06193 -77.30652 11412 ft 210 kts 292°
2026-04-22 20:26 8.06772 -77.32050 11283 ft 213 kts 292°
2026-04-22 20:26 8.07354 -77.33455 11124 ft 217 kts 292°
2026-04-22 20:26 8.07951 -77.34891 10967 ft 219 kts 292°
2026-04-22 20:27 8.08544 -77.36323 10815 ft 220 kts 292°
2026-04-22 20:27 8.09156 -77.37796 10660 ft 221 kts 292°
2026-04-22 20:27 8.09757 -77.39246 10509 ft 221 kts 292°
2026-04-22 20:27 8.10363 -77.40708 10358 ft 222 kts 293°
2026-04-22 20:28 8.10967 -77.42164 10208 ft 222 kts 293°
2026-04-22 20:28 8.11566 -77.43606 10060 ft 222 kts 293°
2026-04-22 20:28 8.12172 -77.45071 9911 ft 222 kts 293°
2026-04-22 20:28 8.12785 -77.46540 9763 ft 222 kts 293°
2026-04-22 20:29 8.13379 -77.47987 9703 ft 218 kts 293°
2026-04-22 20:29 8.13964 -77.49391 9710 ft 213 kts 293°
2026-04-22 20:29 8.14542 -77.50787 9744 ft 208 kts 293°
2026-04-22 20:29 8.15087 -77.52100 10016 ft 194 kts 293°
2026-04-22 20:30 8.15597 -77.53323 10252 ft 185 kts 292°
2026-04-22 20:30 8.16095 -77.54528 10454 ft 182 kts 292°
2026-04-22 20:30 8.16609 -77.55773 10421 ft 191 kts 293°
2026-04-22 20:30 8.17140 -77.57046 10418 ft 196 kts 293°
2026-04-22 20:31 8.17679 -77.58347 10417 ft 199 kts 293°
2026-04-22 20:31 8.18219 -77.59653 10416 ft 201 kts 292°
2026-04-22 20:31 8.18765 -77.60973 10416 ft 202 kts 292°
2026-04-22 20:31 8.19325 -77.62324 10416 ft 203 kts 292°
2026-04-22 20:32 8.19871 -77.63647 10416 ft 203 kts 292°
2026-04-22 20:32 8.20429 -77.64996 10416 ft 204 kts 292°
2026-04-22 20:32 8.20936 -77.66221 10414 ft 204 kts 292°
2026-04-22 20:32 8.21500 -77.67584 10413 ft 204 kts 292°
2026-04-22 20:33 8.22060 -77.68934 10413 ft 204 kts 292°
2026-04-22 20:33 8.22607 -77.70253 10413 ft 204 kts 292°
2026-04-22 20:33 8.23161 -77.71591 10413 ft 204 kts 292°
2026-04-22 20:33 8.23718 -77.72935 10413 ft 204 kts 292°
2026-04-22 20:34 8.24281 -77.74299 10413 ft 204 kts 292°
2026-04-22 20:34 8.24834 -77.75633 10413 ft 204 kts 293°
2026-04-22 20:34 8.25381 -77.76959 10413 ft 204 kts 292°
2026-04-22 20:34 8.25946 -77.78315 10414 ft 204 kts 292°
2026-04-22 20:35 8.26496 -77.79655 10414 ft 204 kts 292°
2026-04-22 20:35 8.27051 -77.80997 10414 ft 204 kts 292°
2026-04-22 20:35 8.27601 -77.82323 10414 ft 204 kts 292°
2026-04-22 20:35 8.28158 -77.83669 10414 ft 204 kts 292°
2026-04-22 20:36 8.28714 -77.85017 10414 ft 204 kts 292°
2026-04-22 20:36 8.29266 -77.86356 10414 ft 204 kts 292°
2026-04-22 20:36 8.29826 -77.87708 10414 ft 204 kts 292°
2026-04-22 20:36 8.30372 -77.89029 10413 ft 198 kts 293°
2026-04-22 20:37 8.30876 -77.90211 10092 ft 171 kts 292°
2026-04-22 20:37 8.31310 -77.91293 9633 ft 155 kts 292°
2026-04-22 20:37 8.31705 -77.92272 9177 ft 146 kts 293°
2026-04-22 20:37 8.32085 -77.93208 8717 ft 140 kts 294°
2026-04-22 20:38 8.32464 -77.94118 8254 ft 137 kts 294°
2026-04-22 20:38 8.32829 -77.95005 7796 ft 135 kts 294°
2026-04-22 20:38 8.33191 -77.95886 7338 ft 133 kts 295°
2026-04-22 20:38 8.33545 -77.96748 6886 ft 131 kts 296°
2026-04-22 20:39 8.33892 -77.97585 6444 ft 129 kts 296°
2026-04-22 20:39 8.34238 -77.98418 6000 ft 128 kts 297°
2026-04-22 20:39 8.34588 -77.99262 5548 ft 127 kts 297°
2026-04-22 20:39 8.34928 -78.00082 5109 ft 125 kts 297°
2026-04-22 20:40 8.35261 -78.00890 4673 ft 123 kts 297°
2026-04-22 20:40 8.35587 -78.01666 4248 ft 121 kts 298°
2026-04-22 20:40 8.35921 -78.02451 3812 ft 119 kts 298°
2026-04-22 20:40 8.36245 -78.03217 3384 ft 118 kts 298°
2026-04-22 20:41 8.36558 -78.03962 3034 ft 111 kts 298°
2026-04-22 20:41 8.36855 -78.04678 2715 ft 113 kts 297°
2026-04-22 20:41 8.37172 -78.05423 2407 ft 113 kts 298°
2026-04-22 20:41 8.37503 -78.06173 2108 ft 117 kts 298°
2026-04-22 20:42 8.37855 -78.06951 1831 ft 127 kts 297°
2026-04-22 20:42 8.38238 -78.07804 1563 ft 134 kts 298°
2026-04-22 20:42 8.38660 -78.08720 1418 ft 146 kts 298°
2026-04-22 20:42 8.39090 -78.09644 1440 ft 139 kts 298°
2026-04-22 20:43 8.39495 -78.10529 1442 ft 130 kts 298°
2026-04-22 20:43 8.39835 -78.11252 1386 ft 94 kts 300°
2026-04-22 20:43 8.40068 -78.11797 1240 ft 76 kts 297°
2026-04-22 20:43 8.40273 -78.12261 1021 ft 68 kts 300°
2026-04-22 20:44 8.40476 -78.12709 801 ft 68 kts 298°
2026-04-22 20:44 8.40695 -78.13125 503 ft 70 kts 305°
2026-04-22 20:44 8.41030 -78.13487 340 ft 77 kts 334°
2026-04-22 20:44 8.41376 -78.13793 446 ft 61 kts 269°
2026-04-22 20:45 8.40955 -78.14005 490 ft 87 kts 162°
2026-04-22 20:45 8.40356 -78.13698 532 ft 92 kts 153°
2026-04-22 20:45 8.39802 -78.13454 676 ft 71 kts 195°
2026-04-22 20:45 8.39603 -78.13832 519 ft 95 kts 279°
2026-04-22 20:46 8.40374 -78.13847 771 ft 90 kts 26°
2026-04-22 20:46 8.40938 -78.13439 850 ft 105 kts 30°
2026-04-22 20:46 8.41557 -78.13013 990 ft 103 kts 24°
2026-04-22 20:47 8.42225 -78.13040 1013 ft 96 kts 315°
2026-04-22 20:47 8.42122 -78.13618 526 ft 110 kts 229°
2026-04-22 20:47 8.41551 -78.14131 134 ft 110 kts 195°
2026-04-22 20:47 8.40792 -78.14174 75 ft 102 kts 186°
2026-04-22 20:48 8.40227 -78.14195 88 ft 53 kts 183°
2026-04-22 20:48 8.40060 -78.14242 86 ft 6 kts 348°
2026-04-22 20:48 8.40106 -78.14208 89 ft 13 kts 29°
2026-04-22 20:48 8.40229 -78.14218 85 ft 21 kts 346°
2026-04-22 20:49 8.40290 -78.14223 84 ft 0 kts 272°